Location: *
(46.1006°N, 1.8394°E)
Time: 09:11:32
(UTC+00:00)

SPOT 3 Rocket - Pass Details

Date: 20 September 2019
Orbit: 779 x 794 km, 98.8° (Epoch: 15 October)

Event Time Altitude Azimuth Distance (km) Brightness Sun altitude
Exits shadow 19:10:34 10° 148° (SSE) 2,301 5.5 -13.7°
Maximum altitude 19:15:32 59° 71° (ENE) 903 3.6 -14.6°
Drops below altitude 10° 19:20:36 10° 353° (N) 2,345 6.3 -15.4°
Sets 19:22:57 0° 349° (N) 3,279 7.2 -15.8°
